Regional Weather Roundup
Issued by NWS

Home | Current Version | Previous Version | Text Only | Print | Product List | Glossary On
Versions: 1 2 3 4 5 6 7 8 9 10 11 12 13 14 15 16 17 18 19 20 21 22 23 24 25 26 27 28 29 30 31 32 33 34 35 36 37 38 39 40 41 42 43 44 45 46 47 48 49 50
000
ASUS43 KLMK 250010
RWRKY
NATIONAL WEATHER SERVICE LOUISVILLE KY
700 PM EST MON NOV 24 2014

NOTE "FAIR" INDICATES FEW OR NO CLOUDS BELOW 12,000 FEET
WITH NO SIGNIFICANT WEATHER AND/OR OBSTRUCTIONS TO VISIBILITY.

KYZ001>023-026-027-061>063-070>075-250100-
WESTERN AND SOUTH CENTRAL KENTUCKY

CITY           SKY/WX    TMP DP  RH WIND       PRES   REMARKS
PADUCAH        CLOUDY    49  32  52 SW8       29.92R
HENDERSON      CLOUDY    46  32  57 SW9       29.89R
OWENSBORO      PTCLDY    43  34  70 SW12      29.91R
HOPKINSVILLE   CLEAR     47  32  56 SW13      29.94R
BOWLING GREEN  PTCLDY    48  32  53 W9        29.92R
GLASGOW        CLEAR     47  33  57 W7        29.90R
$$

KYZ024-025-028>034-038-045-046-053-250100-
NORTH CENTRAL KENTUCKY

CITY           SKY/WX    TMP DP  RH WIND       PRES   REMARKS
LOUISVILLE/SDF MOCLDY    48  34  58 W14       29.86R
LOUISVILLE/LOU CLOUDY    48  33  56 SW12      29.87R
FORT KNOX      CLOUDY    45  36  70 SW7       29.87R
$$

KYZ035>037-039>044-047>052-055>060-089>105-250100-
NORTHEAST KENTUCKY

CITY           SKY/WX    TMP DP  RH WIND       PRES   REMARKS
LEXINGTON      CLEAR     42  35  76 W6        29.86R
COVINGTON      PTCLDY    43  31  62 SW12G17   29.82R
FRANKFORT      PTCLDY    43  34  70 W3        29.85R
$$

KYZ054-064>069-076>088-106>120-250100-
SOUTHEAST KENTUCKY

CITY           SKY/WX    TMP DP  RH WIND       PRES   REMARKS
JACKSON        CLEAR     54  36  50 W7        29.81R
LONDON         CLEAR     53  35  50 W7        29.84R
SOMERSET       CLEAR     50  32  50 W8        29.88R
MIDDLESBORO    CLEAR     59  37  44 W12G18    29.84R
MONTICELLO     CLEAR     50  36  58 W8        29.90R
$$




USA.gov is the U.S. government's official web portal to all federal, state and local government web resources and services.